{"data":{"norad_id":69114,"intl_designator":"2026-108L","name":"QIANFAN-155","alt_names":[],"object_type":"PAYLOAD","status":"ACTIVE","operator":null,"country":"PRC","launch_date":"2026-05-17","launch_site_code":"WSC","launch_vehicle":null,"mission":null,"orbit_class":"UNKNOWN","rcs_meters":null,"size_class":null,"mass_kg":null,"dimensions":null,"purposes":[],"wikipedia_slug":null,"has_3d_model":false,"image_url":null,"decayed_at":null,"tle_current":{"epoch":"2026-09-20T02:42:18.112896Z","epoch_age_seconds":56660,"freshness":"FRESH","line1":"1 69114U 26108L   26263.11270964  .00000121  00000+0  16873-3 0  9998","line2":"2 69114  89.0194  12.5467 0002283 105.1918 254.9486 13.51023809 17265","mean_motion":13.51023809,"eccentricity":0.0002283,"inclination_deg":89.0194,"raan_deg":12.5467,"arg_perigee_deg":105.1918,"mean_anomaly_deg":254.9486,"bstar":0.00016873,"rev_number":1726,"period_min":106.58583441737,"perigee_km":1066.7940304347,"apogee_km":1070.1941621933,"semimajor_km":7446.631096314,"source":"CELESTRAK","updated_at":"2026-09-20T09:00:24.681792Z"}}}